Location: *
(49.3500°N, 12.6000°E)
Time: 19:54:29
(UTC+00:00)

Cosmos 1812 Rocket - Pass Details

Date: 18 October 2019
Orbit: 606 x 632 km, 82.5° (Epoch: 14 November)

Event Time Altitude Azimuth Distance (km) Brightness Sun altitude
Rises 18:14:24 0° 187° (S) 2,889 7.0 -20.3°
Reaches altitude 10° 18:16:37 10° 187° (S) 1,991 6.1 -20.6°
Maximum altitude 18:21:02 87° 98° (E) 636 3.5 -21.3°
Drops below altitude 10° 18:25:32 10° 11° (N) 2,021 6.2 -22.1°
Sets 18:27:47 0° 11° (N) 2,936 7.0 -22.4°
